Weather History for KRPH - October, 2013

Change the Weather History Date:

Wednesday, October 30, 2013

  Actual Average (WUND) Record (WUND)
Temperature  
Mean Temperature 72 °F -  
Max Temperature 75 °F - - (-1)
Min Temperature 68 °F - - (-1)
Cooling Degree Days 6    
Growing Degree Days 22 (Base 50)    
Moisture  
Dew Point 66 °F    
Average Humidity 81    
Maximum Humidity 88    
Minimum Humidity 72    
Precipitation  
Precipitation 0.01 in - - ()
Sea Level Pressure  
Sea Level Pressure 29.88 in    
Wind  
Wind Speed 9 mph (SSE)    
Max Wind Speed 13 mph    
Max Gust Speed 21 mph    
Visibility 10 miles    
Events Rain    
Averages and records for this station are not official NWS values.
T = Trace of Precipitation, MM = Missing Value Source: NWS Daily Summary

Daily Weather History Graph

Daily Weather History Graph

Search for Another Location

Airport or City:

Trip Planner

Search our weather history database for the weather conditions in past years. The results will help you decide how hot, cold, wet, or windy it might be!

Date:

Astronomy

Oct. 30, 2013 Rise Set
Actual Time 7:50 AM CDT 6:44 PM CDT
Civil Twilight 7:25 AM CDT 7:09 PM CDT
Nautical Twilight 6:56 AM CDT 7:38 PM CDT
Astronomical Twilight 6:27 AM CDT 8:07 PM CDT
Moon 3:53 AM CDT (10/30) 4:20 PM CDT (10/30)
Length of Visible Light 11h 44m
Length of Day
10h 53m
Waning Crescent, 17% of the Moon is Illuminated
Oct 30
Waning Crescent
Nov 3
New
Nov 9
First Quarter
Nov 17
Full
Nov 25
Last Quarter

Hourly Weather History & Observations

Time (CDT) Temp. Dew Point Humidity Pressure Visibility Wind Dir Wind Speed Gust Speed Precip Events Conditions
12:15 AM 72.0 °F 66.6 °F 83% 29.97 in 10.0 mi SE 10.4 mph - N/A   Clear
12:35 AM 72.0 °F 66.4 °F 83% 29.96 in 10.0 mi SE 11.5 mph 17.3 mph N/A   Clear
12:55 AM 72.1 °F 66.4 °F 82% 29.95 in 10.0 mi SE 10.4 mph 19.6 mph N/A   Clear
1:15 AM 72.1 °F 66.2 °F 82% 29.95 in 10.0 mi SE 12.7 mph 19.6 mph N/A   Clear
1:35 AM 72.1 °F 66.2 °F 82% 29.94 in 10.0 mi SE 11.5 mph 18.4 mph N/A   Clear
1:55 AM 72.1 °F 65.8 °F 80% 29.94 in 10.0 mi SSE 12.7 mph 20.7 mph N/A   Clear
2:15 AM 72.0 °F 65.7 °F 80% 29.95 in 10.0 mi SSE 9.2 mph 16.1 mph N/A   Scattered Clouds
2:35 AM 71.8 °F 65.5 °F 80% 29.94 in 10.0 mi SSE 12.7 mph 18.4 mph N/A   Scattered Clouds
2:55 AM 71.8 °F 65.5 °F 80% 29.95 in 10.0 mi SSE 11.5 mph 17.3 mph N/A   Mostly Cloudy
3:15 AM 71.6 °F 65.5 °F 81% 29.94 in 10.0 mi SE 12.7 mph 20.7 mph N/A   Mostly Cloudy
3:35 AM 71.2 °F 65.5 °F 82% 29.93 in 10.0 mi SSE 10.4 mph 17.3 mph N/A Rain Light Rain
3:55 AM 70.3 °F 66.2 °F 87% 29.93 in 10.0 mi SSE 8.1 mph 20.7 mph N/A Rain Light Rain
4:15 AM 69.8 °F 66.2 °F 88% 29.93 in 10.0 mi SSE 12.7 mph 17.3 mph 0.01 in   Mostly Cloudy
4:35 AM 69.8 °F 66.2 °F 88% 29.93 in 10.0 mi SSE 10.4 mph 18.4 mph 0.01 in Rain Light Rain
4:55 AM 70.0 °F 65.8 °F 87% 29.93 in 10.0 mi SSE 8.1 mph - 0.01 in   Overcast
5:15 AM 70.7 °F 65.7 °F 84% 29.92 in 10.0 mi SSE 10.4 mph - N/A   Overcast
5:35 AM 70.9 °F 65.7 °F 83% 29.93 in 10.0 mi South 9.2 mph 16.1 mph N/A   Overcast
5:55 AM 71.2 °F 65.5 °F 82% 29.92 in 10.0 mi SSE 10.4 mph 17.3 mph N/A   Overcast
6:15 AM 71.6 °F 65.7 °F 81% 29.92 in 10.0 mi SSE 8.1 mph 16.1 mph N/A   Overcast
6:35 AM 71.6 °F 65.7 °F 81% 29.92 in 10.0 mi SSE 10.4 mph 16.1 mph N/A   Mostly Cloudy
6:55 AM 71.2 °F 65.7 °F 82% 29.92 in 10.0 mi South 6.9 mph - N/A   Clear
7:15 AM 71.1 °F 65.5 °F 82% 29.92 in 10.0 mi South 5.8 mph - N/A   Clear
7:35 AM 70.9 °F 65.5 °F 83% 29.91 in 10.0 mi SSE 4.6 mph - N/A   Scattered Clouds
7:55 AM 70.7 °F 65.3 °F 83% 29.90 in 10.0 mi SE 5.8 mph - N/A   Scattered Clouds
8:15 AM 70.3 °F 65.3 °F 84% 29.90 in 10.0 mi SE 5.8 mph - N/A   Clear
8:35 AM 70.3 °F 65.5 °F 85% 29.92 in 10.0 mi SE 5.8 mph - N/A   Clear
8:55 AM 71.1 °F 65.5 °F 82% 29.93 in 10.0 mi SSE 6.9 mph - N/A   Clear
9:15 AM 71.1 °F 65.8 °F 84% 29.93 in 10.0 mi SE 5.8 mph - N/A   Clear
9:35 AM 72.0 °F 66.2 °F 82% 29.93 in 10.0 mi SE 6.9 mph - N/A   Clear
9:55 AM 73.4 °F 66.6 °F 79% 29.93 in 10.0 mi SE 6.9 mph - N/A   Scattered Clouds
10:15 AM 74.5 °F 66.9 °F 77% 29.93 in 10.0 mi SSE 10.4 mph - N/A   Scattered Clouds
10:35 AM 74.1 °F 67.1 °F 79% 29.93 in 10.0 mi SSE 10.4 mph 16.1 mph N/A   Mostly Cloudy
10:55 AM 73.8 °F 67.1 °F 80% 29.93 in 10.0 mi SSE 6.9 mph 16.1 mph N/A   Overcast
11:15 AM 74.3 °F 67.5 °F 79% 29.92 in 10.0 mi SE 10.4 mph - N/A   Overcast
11:35 AM 74.3 °F 67.6 °F 80% 29.93 in 10.0 mi SSE 9.2 mph - N/A   Overcast
11:55 AM 74.3 °F 67.6 °F 80% 29.93 in 10.0 mi SSE 8.1 mph - N/A   Overcast
12:15 PM 74.3 °F 68.0 °F 81% 29.93 in 10.0 mi SSE 8.1 mph - N/A   Overcast
12:35 PM 74.8 °F 68.0 °F 79% 29.92 in 10.0 mi SE 6.9 mph - N/A   Overcast
12:55 PM 74.8 °F 68.2 °F 80% 29.92 in 10.0 mi SSE 5.8 mph - N/A   Overcast
1:15 PM 75.0 °F 68.0 °F 79% 29.91 in 10.0 mi SSE 6.9 mph - N/A   Overcast
1:35 PM 75.4 °F 68.0 °F 78% 29.90 in 10.0 mi SSE 8.1 mph - N/A   Overcast
1:55 PM 74.8 °F 68.4 °F 80% 29.89 in 10.0 mi SSE 8.1 mph - N/A   Light Drizzle
2:15 PM 74.8 °F 68.4 °F 80% 29.88 in 10.0 mi SSE 8.1 mph - N/A   Mostly Cloudy
2:35 PM 74.8 °F 68.5 °F 81% 29.87 in 10.0 mi SSE 6.9 mph - N/A   Scattered Clouds
2:55 PM 75.0 °F 68.4 °F 80% 29.86 in 10.0 mi SSE 6.9 mph - N/A   Scattered Clouds
3:15 PM 75.2 °F 68.2 °F 79% 29.84 in 10.0 mi SSE 9.2 mph - N/A   Scattered Clouds
3:35 PM 75.4 °F 68.0 °F 78% 29.82 in 10.0 mi SSE 6.9 mph - N/A Rain Light Rain
3:55 PM 75.7 °F 68.0 °F 77% 29.82 in 10.0 mi SSE 5.8 mph - N/A   Clear
4:15 PM 75.2 °F 68.0 °F 78% 29.81 in 10.0 mi South 6.9 mph - N/A   Clear
4:35 PM 75.2 °F 68.0 °F 78% 29.81 in 10.0 mi South 3.5 mph - N/A   Scattered Clouds
4:55 PM 75.2 °F 68.2 °F 79% 29.82 in 10.0 mi South 3.5 mph - N/A   Mostly Cloudy
5:15 PM 74.7 °F 68.0 °F 80% 29.81 in 10.0 mi SSE 4.6 mph - N/A   Scattered Clouds
5:35 PM 74.3 °F 68.2 °F 81% 29.80 in 10.0 mi SE 3.5 mph - N/A   Scattered Clouds
5:55 PM 73.8 °F 68.0 °F 82% 29.80 in 10.0 mi SE 3.5 mph - N/A   Clear
6:15 PM 73.2 °F 67.6 °F 83% 29.80 in 10.0 mi SE 4.6 mph - N/A   Clear
7:55 PM 71.6 °F 63.5 °F 76% 29.80 in 10.0 mi SE 5.8 mph - N/A Rain Light Rain
8:15 PM 71.2 °F 61.9 °F 72% 29.78 in 10.0 mi SE 9.2 mph - N/A   Light Drizzle
8:35 PM 70.7 °F 62.1 °F 74% 29.81 in 10.0 mi South 4.6 mph - N/A   Mostly Cloudy
8:55 PM 70.9 °F 64.6 °F 80% 29.80 in 10.0 mi SSE 4.6 mph - N/A   Scattered Clouds
9:15 PM 70.9 °F 66.4 °F 86% 29.81 in 10.0 mi SSE 5.8 mph - N/A   Light Drizzle
9:35 PM 70.9 °F 66.4 °F 86% 29.80 in 10.0 mi SSE 5.8 mph - N/A   Clear
9:55 PM 70.7 °F 65.7 °F 84% 29.79 in 10.0 mi SE 5.8 mph - N/A   Clear
10:15 PM 70.3 °F 65.3 °F 84% 29.77 in 10.0 mi SSE 4.6 mph - N/A   Clear
10:35 PM 70.5 °F 62.8 °F 76% 29.77 in 10.0 mi South 5.8 mph - N/A   Scattered Clouds
10:55 PM 70.0 °F 61.2 °F 73% 29.76 in 10.0 mi South 4.6 mph - N/A   Mostly Cloudy
11:15 PM 69.6 °F 60.3 °F 72% 29.76 in 10.0 mi SSE 5.8 mph - N/A   Scattered Clouds
11:35 PM 68.7 °F 59.9 °F 73% 29.76 in 10.0 mi South 5.8 mph - N/A   Clear
11:55 PM 68.4 °F 59.0 °F 72% 29.74 in 10.0 mi SE 6.9 mph - N/A   Clear